Regional Weather Roundup
Issued by NWS

Home | Current Version | Previous Version | Text Only | Print | Product List | Glossary Off
Versions: 1 2 3 4 5 6 7 8 9 10 11 12 13 14 15 16 17 18 19 20 21 22 23 24 25 26 27 28 29 30 31 32 33 34 35 36 37 38 39 40 41 42 43 44 45 46 47 48 49 50

000
ASUS43 KOAX 280810
RWRNE

WEATHER ROUNDUP FOR NEBRASKA
NATIONAL WEATHER SERVICE OMAHA NE
300 AM CDT THU APR 28 2016

NOTES: SATELLITE DATA IS BEING USED TO AUGMENT CLOUD COVER ABOVE
       12000 FEET.
       "FAIR" INDICATES FEW OR NO CLOUDS BELOW 12,000 FEET WITH NO
       SIGNIFICANT WEATHER AND/OR OBSTRUCTIONS TO VISIBILITY.

  * THESE STATIONS DO NOT REPORT WEATHER SUCH AS RAIN...SNOW OR FOG.

NEZ001>004-019>022-054>056-280900-
NEBRASKA PANHANDLE

CITY           SKY/WX    TMP DP  RH WIND       PRES   REMARKS
SCOTTSBLUFF    PTCLDY    30  27  88 W5        29.93F WCI  25
ALLIANCE       CLOUDY    31  28  89 NW12      29.90F WCI  22
CHADRON        CLOUDY    33  30  88 N6        29.95S WCI  28
KIMBALL        CLOUDY    32  31  98 N9        29.90S WCI  24
SIDNEY         CLEAR     28  26  92 N6        29.91R WCI  22
$$

NEZ057>060-069>072-079>082-280900-
SOUTHWEST NEBRASKA

CITY           SKY/WX    TMP DP  RH WIND       PRES   REMARKS
NORTH PLATTE   CLEAR     32  29  88 NW10      29.87S WCI  24
IMPERIAL       CLEAR     33  29  85 NW10      29.91R WCI  25
LEXINGTON      CLEAR     35  32  88 NW15      29.84R WCI  25
MCCOOK         CLEAR     34  29  82 NW17      29.88S WCI  23
OGALLALA       CLEAR     31  28  88 NW10      29.89F WCI  23
$$

NEZ005>010-023>029-035>040-094-280900-
NORTH CENTRAL NEBRASKA

CITY           SKY/WX    TMP DP  RH WIND       PRES   REMARKS
VALENTINE      CLOUDY    34  32  92 NW13      29.87S WCI  25
AINSWORTH      LGT RAIN  36  36 100 NW16      29.84R WCI  26
BROKEN BOW     MIX PCPN  35  33  92 NW18      29.82R WCI  24
O`NEILL        CLOUDY    41  40  95 N15       29.79R
ORD            CLOUDY    39  38  96 NW15      29.78R WCI  31
THEDFORD       LGT SNOW  34  33  97 NW9       29.86S WCI  26
$$

NEZ041-046>049-061>064-073>077-083>087-280900-
SOUTH CENTRAL NEBRASKA

CITY           SKY/WX    TMP DP  RH WIND       PRES   REMARKS
GRAND ISLAND   CLOUDY    40  38  93 NW22      29.77R WCI  30
AURORA         CLOUDY    42  41  97 NW17      29.75R
HASTINGS       CLOUDY    40  36  86 NW18      29.78R WCI  31
HEBRON         CLOUDY    42  39  86 W13G21    29.77R
HOLDREGE       CLEAR     35  32  89 NW13G20   29.83R WCI  26
KEARNEY *      CLOUDY    37  34  87 NW15      29.82R WCI  28
YORK           CLOUDY    45  43  93 NW21      29.72R FOG
$$

NEZ011>018-030>034-042>045-280900-
NORTHEAST NEBRASKA

CITY           SKY/WX    TMP DP  RH WIND       PRES   REMARKS
NORFOLK        LGT RAIN  43  40  89 N13       29.71R
ALBION         CLOUDY    43  41  94 N14G20    29.74R FOG
BLAIR          DRIZZLE   46  45  97 SE6       29.64S
COLUMBUS *     CLOUDY    45  37  76 NW16      29.71S
FREMONT        CLOUDY    46  45  99 NW15      29.67R FOG
TEKAMAH        CLOUDY    48  46  93 E5        29.66R
WAYNE          CLOUDY    43  41  94 N10G18    29.72R
$$

NEZ050>053-065>068-078-088>093-280900-
SOUTHEAST NEBRASKA

CITY           SKY/WX    TMP DP  RH WIND       PRES   REMARKS
LINCOLN        CLOUDY    50  45  83 NW13      29.69R
OMAHA EPPLEY   DRIZZLE   46  44  93 SW5       29.66R
BEATRICE       CLOUDY    45  43  95 W16G24    29.72R
FALLS CITY     CLOUDY    48  43  82 W21       29.67S
NEBRASKA CITY  CLOUDY    46  46 100 W7        29.66R
PLATTSMOUTH    CLOUDY    46  44  95 W6        29.65S
$$

NEZ044-045-051>053-067-280900-
OMAHA AREA

CITY           SKY/WX    TMP DP  RH WIND       PRES   REMARKS
OMAHA EPPLEY   DRIZZLE   46  44  93 SW5       29.66R
BLAIR          DRIZZLE   46  45  97 SE6       29.64S
FREMONT        CLOUDY    46  45  99 NW15      29.67R FOG
MILLARD        DRIZZLE   46  45  93 SW3       29.66R
OFFUTT AFB     CLOUDY    46  45  93 SW5       29.65R FOG
PLATTSMOUTH    CLOUDY    46  44  95 W6        29.65S
WAHOO          CLOUDY    47  44  90 NW18      29.67R
$$




USA.gov is the U.S. government's official web portal to all federal, state and local government web resources and services.